Location: Krakow
(50.0212°N, 19.9423°E)
Time: 18:24:30
(UTC+01:00)

ARIANE 6 FM1 Upper Stage - Pass Details

Date: 18 December 2025
Orbit: 522 x 610 km, 62.0° (Epoch: 17 January)

Event Time Altitude Azimuth Distance (km) Brightness Sun altitude
Exits shadow 04:22:54 13° 154° (SSE) 1,601 5.2 -29.4°
Maximum altitude 04:24:54 18° 119° (ESE) 1,351 5.2 -29.1°
Drops below altitude 10° 04:27:38 10° 76° (ENE) 1,775 6.1 -28.7°
Sets 04:30:20 0° 57° (ENE) 2,662 6.9 -28.2°
